Philip, SD

11:24 PM MDT on July 20, 2017 (GMT -0600)
Philip

Weather History for KPHP - February, 2013

Change the Weather History Date:

Thursday, February 28, 2013

  Actual Average Record
Temperature  
Mean Temperature 31 °F 29 °F  
Max Temperature 40 °F 42 °F 75 °F (2006)
Min Temperature 22 °F 16 °F -25 °F (1962)
Degree Days  
Heating Degree Days 34 36  
Month to date heating degree days 991 1101  
Since 1 July heating degree days 5026 5365  
Cooling Degree Days 0 0  
Month to date cooling degree days 0 0  
Year to date cooling degree days 0 0  
Moisture  
Dew Point 21 °F    
Average Humidity 72    
Maximum Humidity 96    
Minimum Humidity 48    
Precipitation  
Precipitation 0.00 in 0.03 in 2.34 in (1987)
Month to date precipitation 0.29 0.48  
Year to date precipitation 0.82 0.78  
Sea Level Pressure  
Sea Level Pressure 30.28 in    
Wind  
Wind Speed 5 mph (NNE)    
Max Wind Speed 10 mph    
Max Gust Speed 13 mph    
Visibility 10 miles    
Events      
T = Trace of Precipitation, MM = Missing Value Source: NWS Daily Summary

Daily Weather History Graph

Daily Weather History Graph

Search for Another Location

Airport or City:

Trip Planner

Search our weather history database for the weather conditions in past years. The results will help you decide how hot, cold, wet, or windy it might be!

Date:

Astronomy

Feb. 28, 2013 Rise Set
Actual Time 6:24 AM MST 5:33 PM MST
Civil Twilight 5:55 AM MST 6:02 PM MST
Nautical Twilight 5:22 AM MST 6:36 PM MST
Astronomical Twilight 4:48 AM MST 7:09 PM MST
Moon 9:12 PM MST (2/28) 7:27 AM MST (2/28)
Length of Visible Light 12h 07m
Length of Day
11h 09m
Waning Gibbous, 90% of the Moon is Illuminated
Feb 28
Waning Gibbous
Mar 4
Last Quarter
Mar 11
New
Mar 19
First Quarter
Mar 27
Full

Hourly Weather History & Observations

Time (MST) Temp. Windchill Dew Point Humidity Pressure Visibility Wind Dir Wind Speed Gust Speed Precip Events Conditions
12:55 AM 21.9 °F 17.2 °F 19.9 °F 92% 30.31 in 9.0 mi West 3.5 mph - N/A   Overcast
1:55 AM 23.0 °F - 21.0 °F 92% 30.31 in 10.0 mi Calm Calm - N/A   Overcast
2:55 AM 26.1 °F 20.5 °F 21.9 °F 84% 30.29 in 10.0 mi NNW 4.6 mph - N/A   Overcast
3:55 AM 26.1 °F 21.9 °F 21.9 °F 84% 30.29 in 10.0 mi NW 3.5 mph - N/A   Overcast
4:55 AM 27.0 °F 18.7 °F 21.0 °F 78% 30.30 in 10.0 mi NNW 8.1 mph - N/A   Overcast
5:55 AM 27.0 °F 23.0 °F 21.0 °F 78% 30.30 in 10.0 mi North 3.5 mph - N/A   Overcast
6:55 AM 27.0 °F 20.5 °F 21.0 °F 78% 30.32 in 10.0 mi NNW 5.8 mph - N/A   Overcast
7:55 AM 28.0 °F 21.7 °F 21.0 °F 75% 30.32 in 10.0 mi NNW 5.8 mph - N/A   Overcast
8:55 AM 28.9 °F 21.1 °F 21.0 °F 72% 30.33 in 10.0 mi NW 8.1 mph - N/A   Overcast
9:55 AM 30.0 °F 22.4 °F 21.0 °F 69% 30.32 in 10.0 mi NW 8.1 mph - N/A   Overcast
10:55 AM 32.0 °F 26.4 °F 21.9 °F 66% 30.32 in 10.0 mi North 5.8 mph - N/A   Overcast
11:55 AM 33.1 °F 27.7 °F 21.9 °F 64% 30.30 in 10.0 mi NW 5.8 mph - N/A   Overcast
12:55 PM 35.1 °F 32.2 °F 21.9 °F 59% 30.27 in 10.0 mi Variable 3.5 mph - N/A   Overcast
1:55 PM 37.9 °F - 21.9 °F 53% 30.25 in 10.0 mi Calm Calm - N/A   Scattered Clouds
2:55 PM 39.0 °F 34.0 °F 21.9 °F 50% 30.23 in 10.0 mi Variable 6.9 mph - N/A   Clear
3:55 PM 39.0 °F 35.7 °F 21.9 °F 50% 30.22 in 10.0 mi Variable 4.6 mph - N/A   Clear
4:55 PM 35.1 °F 32.2 °F 21.0 °F 57% 30.24 in 10.0 mi ESE 3.5 mph - N/A   Clear
5:55 PM 30.9 °F 26.2 °F 21.9 °F 69% 30.25 in 10.0 mi East 4.6 mph - N/A   Mostly Cloudy
6:55 PM 28.9 °F 21.9 °F 21.9 °F 75% 30.26 in 10.0 mi ENE 6.9 mph - N/A   Overcast
7:55 PM 28.0 °F 21.7 °F 21.9 °F 78% 30.27 in 10.0 mi East 5.8 mph - N/A   Overcast
8:55 PM 26.1 °F 20.5 °F 21.9 °F 84% 30.28 in 10.0 mi East 4.6 mph - N/A   Scattered Clouds
9:55 PM 27.0 °F 21.6 °F 21.9 °F 81% 30.28 in 10.0 mi ESE 4.6 mph - N/A   Mostly Cloudy
10:55 PM 25.0 °F 20.7 °F 21.9 °F 88% 30.28 in 10.0 mi ESE 3.5 mph - N/A   Overcast
11:55 PM 25.0 °F 19.3 °F 21.0 °F 85% 30.28 in 10.0 mi SE 4.6 mph - N/A   Scattered Clouds